• In Belarus
  • List of Countries
  • For 7 days
  • Water Temperature
  • Weather Map
  • Weather Widgets
  • user-avatar
    Login

    Hourly Weather Ibi

    Today, 25 January, Saturday

    Time Temperature Precipitation Wind Pressure Humidity
    00:00 +6°C° 0 mm 1 mps 690 mmHg 93%
    01:00 +5°C° 0 mm 1 mps 690 mmHg 93%
    02:00 +5°C° 0 mm 1 mps 689 mmHg 93%
    03:00 +5°C° 0 mm 1 mps 689 mmHg 93%
    04:00 +5°C° 0 mm 1 mps 689 mmHg 93%
    05:00 +5°C° 0 mm 1 mps 689 mmHg 92%
    06:00 +5°C° 0 mm 1 mps 689 mmHg 93%
    07:00 +6°C° 0 mm 1 mps 689 mmHg 90%
    08:00 +7°C° 0 mm 1 mps 689 mmHg 88%
    09:00 +7°C° 0 mm 1 mps 690 mmHg 86%
    10:00 +8°C° 0 mm 1 mps 690 mmHg 82%
    11:00 +9°C° 0 mm 1 mps 690 mmHg 78%
    12:00 +9°C° 0 mm 2 mps 690 mmHg 74%
    13:00 +9°C° 0 mm 2 mps 689 mmHg 73%
    14:00 +9°C° 0 mm 2 mps 689 mmHg 73%
    15:00 +9°C° 0 mm 2 mps 688 mmHg 73%
    16:00 +9°C° 0.3 mm 2 mps 688 mmHg 79%
    17:00 +8°C° 0.3 mm 2 mps 688 mmHg 85%
    18:00 +8°C° 0.3 mm 1 mps 689 mmHg 90%
    19:00 +7°C° 0.1 mm 1 mps 689 mmHg 90%
    20:00 +7°C° 0.1 mm 1 mps 689 mmHg 90%
    21:00 +6°C° 0.1 mm 0 mps 689 mmHg 90%
    22:00 +5°C° 0 mm 0 mps 689 mmHg 91%
    23:00 +5°C° 0 mm 0 mps 689 mmHg 91%

    Tomorrow, 26 January, Sunday

    Time Temperature Precipitation Wind Pressure Humidity
    00:00 +4°C° 0 mm 0 mps 689 mmHg 91%
    01:00 +5°C° 0 mm 1 mps 689 mmHg 91%
    02:00 +5°C° 0 mm 1 mps 689 mmHg 91%
    03:00 +5°C° 0 mm 1 mps 689 mmHg 90%
    04:00 +4°C° 0 mm 2 mps 689 mmHg 89%
    05:00 +5°C° 0 mm 2 mps 689 mmHg 87%
    06:00 +5°C° 0 mm 2 mps 689 mmHg 86%
    07:00 +4°C° 0 mm 3 mps 690 mmHg 83%
    08:00 +5°C° 0 mm 4 mps 690 mmHg 80%
    09:00 +5°C° 0 mm 5 mps 691 mmHg 77%
    10:00 +6°C° 0 mm 5 mps 691 mmHg 73%
    11:00 +7°C° 0 mm 6 mps 692 mmHg 68%
    12:00 +9°C° 0 mm 6 mps 692 mmHg 63%
    13:00 +9°C° 0 mm 6 mps 692 mmHg 62%
    14:00 +9°C° 0 mm 7 mps 692 mmHg 61%
    15:00 +9°C° 0 mm 7 mps 692 mmHg 59%
    16:00 +8°C° 0 mm 6 mps 692 mmHg 64%
    17:00 +6°C° 0 mm 5 mps 692 mmHg 68%
    18:00 +5°C° 0 mm 4 mps 692 mmHg 72%
    19:00 +5°C° 0 mm 4 mps 692 mmHg 73%
    20:00 +4°C° 0 mm 4 mps 692 mmHg 73%
    21:00 +4°C° 0 mm 4 mps 693 mmHg 74%
    22:00 +4°C° 0 mm 4 mps 693 mmHg 75%
    23:00 +3°C° 0 mm 4 mps 693 mmHg 76%

    Day after tomorrow, 27 January, Monday

    Time Temperature Precipitation Wind Pressure Humidity
    00:00 +3°C° 0 mm 3 mps 693 mmHg 78%
    01:00 +3°C° 0 mm 3 mps 693 mmHg 79%
    02:00 +2°C° 0 mm 3 mps 693 mmHg 80%
    03:00 +2°C° 0 mm 3 mps 692 mmHg 82%
    04:00 +2°C° 0 mm 3 mps 692 mmHg 82%
    05:00 +2°C° 0 mm 3 mps 692 mmHg 83%
    06:00 +1°C° 0 mm 3 mps 692 mmHg 84%
    07:00 +2°C° 0 mm 3 mps 692 mmHg 81%
    08:00 +3°C° 0 mm 4 mps 693 mmHg 77%
    09:00 +4°C° 0 mm 4 mps 693 mmHg 74%
    10:00 +6°C° 0 mm 4 mps 693 mmHg 69%
    11:00 +7°C° 0 mm 5 mps 693 mmHg 63%
    12:00 +9°C° 0 mm 5 mps 693 mmHg 58%
    13:00 +9°C° 0 mm 5 mps 693 mmHg 56%
    14:00 +10°C° 0 mm 5 mps 692 mmHg 54%
    15:00 +10°C° 0 mm 5 mps 692 mmHg 53%
    16:00 +10°C° 0 mm 4 mps 692 mmHg 58%
    17:00 +7°C° 0 mm 4 mps 692 mmHg 64%
    18:00 +7°C° 0 mm 3 mps 691 mmHg 69%
    19:00 +7°C° 0 mm 3 mps 691 mmHg 71%
    20:00 +5°C° 0 mm 3 mps 692 mmHg 73%
    21:00 +5°C° 0 mm 3 mps 692 mmHg 76%
    22:00 +5°C° 0 mm 3 mps 692 mmHg 76%
    23:00 +5°C° 0 mm 3 mps 692 mmHg 76%

    28 January, Tuesday

    Time Temperature Precipitation Wind Pressure Humidity
    00:00 +5°C° 0 mm 3 mps 692 mmHg 77%
    01:00 +4°C° 0 mm 3 mps 692 mmHg 77%
    02:00 +4°C° 0 mm 3 mps 691 mmHg 78%
    03:00 +4°C° 0 mm 3 mps 691 mmHg 79%
    04:00 +4°C° 0 mm 3 mps 691 mmHg 81%
    05:00 +4°C° 0 mm 3 mps 691 mmHg 82%
    06:00 +5°C° 0 mm 3 mps 692 mmHg 84%
    07:00 +7°C° 0 mm 3 mps 692 mmHg 81%
    08:00 +7°C° 0 mm 3 mps 692 mmHg 77%
    09:00 +8°C° 0 mm 3 mps 693 mmHg 74%
    10:00 +10°C° 0 mm 4 mps 693 mmHg 69%
    11:00 +11°C° 0 mm 4 mps 693 mmHg 64%
    12:00 +13°C° 0 mm 4 mps 694 mmHg 60%
    13:00 +13°C° 0 mm 4 mps 693 mmHg 59%
    14:00 +13°C° 0 mm 4 mps 693 mmHg 58%
    15:00 +14°C° 0 mm 4 mps 692 mmHg 57%
    16:00 +12°C° 0 mm 4 mps 692 mmHg 63%
    17:00 +11°C° 0 mm 3 mps 692 mmHg 68%
    18:00 +9°C° 0 mm 3 mps 692 mmHg 73%
    19:00 +9°C° 0 mm 3 mps 692 mmHg 75%
    20:00 +9°C° 0 mm 3 mps 692 mmHg 76%
    21:00 +9°C° 0 mm 3 mps 692 mmHg 77%
    22:00 +9°C° 0 mm 3 mps 692 mmHg 77%
    23:00 +9°C° 0 mm 2 mps 692 mmHg 78%

    29 January, Wednesday

    Time Temperature Precipitation Wind Pressure Humidity
    00:00 +9°C° 0 mm 2 mps 692 mmHg 78%
    01:00 +9°C° 0 mm 2 mps 692 mmHg 78%
    02:00 +9°C° 0 mm 2 mps 692 mmHg 78%
    03:00 +9°C° 0 mm 2 mps 692 mmHg 79%
    04:00 +8°C° 0 mm 2 mps 691 mmHg 79%
    05:00 +8°C° 0 mm 2 mps 691 mmHg 79%
    06:00 +8°C° 0 mm 2 mps 691 mmHg 79%
    07:00 +9°C° 0 mm 3 mps 692 mmHg 78%
    08:00 +9°C° 0 mm 3 mps 692 mmHg 76%
    09:00 +10°C° 0 mm 3 mps 693 mmHg 74%
    10:00 +11°C° 0 mm 3 mps 693 mmHg 69%
    11:00 +12°C° 0 mm 4 mps 693 mmHg 65%
    12:00 +13°C° 0 mm 4 mps 693 mmHg 60%
    13:00 +14°C° 0 mm 4 mps 693 mmHg 60%
    14:00 +14°C° 0 mm 4 mps 693 mmHg 59%
    15:00 +14°C° 0 mm 4 mps 692 mmHg 59%
    16:00 +13°C° 0 mm 3 mps 692 mmHg 64%
    17:00 +11°C° 0 mm 3 mps 692 mmHg 69%
    18:00 +10°C° 0 mm 2 mps 692 mmHg 74%
    19:00 +10°C° 0 mm 2 mps 692 mmHg 75%
    20:00 +9°C° 0 mm 2 mps 692 mmHg 76%
    21:00 +9°C° 0 mm 2 mps 692 mmHg 76%
    22:00 +9°C° 0 mm 2 mps 692 mmHg 76%
    23:00 +9°C° 0 mm 2 mps 692 mmHg 75%

    30 January, Thursday

    Time Temperature Precipitation Wind Pressure Humidity
    00:00 +9°C° 0 mm 2 mps 692 mmHg 74%
    01:00 +8°C° 0 mm 2 mps 692 mmHg 75%
    02:00 +8°C° 0 mm 2 mps 692 mmHg 76%
    03:00 +8°C° 0 mm 2 mps 692 mmHg 77%
    04:00 +7°C° 0 mm 2 mps 692 mmHg 74%
    05:00 +7°C° 0 mm 2 mps 691 mmHg 71%
    06:00 +7°C° 0 mm 2 mps 691 mmHg 68%
    07:00 +8°C° 0 mm 2 mps 692 mmHg 63%
    08:00 +9°C° 0 mm 2 mps 692 mmHg 59%
    09:00 +10°C° 0 mm 2 mps 693 mmHg 54%
    10:00 +11°C° 0 mm 3 mps 693 mmHg 49%
    11:00 +12°C° 0 mm 3 mps 693 mmHg 44%
    12:00 +13°C° 0 mm 4 mps 693 mmHg 39%
    13:00 +14°C° 0 mm 4 mps 693 mmHg 39%
    14:00 +14°C° 0 mm 5 mps 692 mmHg 38%
    15:00 +14°C° 0 mm 5 mps 692 mmHg 37%
    16:00 +13°C° 0 mm 5 mps 692 mmHg 41%
    17:00 +11°C° 0 mm 4 mps 692 mmHg 46%
    18:00 +10°C° 0 mm 4 mps 691 mmHg 50%
    19:00 +8°C° 0 mm 4 mps 692 mmHg 52%
    20:00 +8°C° 0 mm 4 mps 692 mmHg 54%
    21:00 +8°C° 0 mm 4 mps 692 mmHg 55%
    22:00 +8°C° 0 mm 4 mps 692 mmHg 58%
    23:00 +8°C° 0 mm 5 mps 692 mmHg 60%
    Show more